Dades meteomassalio
Diari Summary for Maig 25, 2017 Units:  Metric    English   Both
« Previous Day
Next Day »
Diari Semanal Mensual Anual Personalitzat
  Maxima: Minima: Mijana:
Temperatura: -17.8 °C -10.9 °C -4.3 °C
Rosada: -17.8 °C -14.9 °C -13.7 °C
Humitat: Humidity % 18 % 38 %
Velocitat del vent: 0 km/h 0 km/h 8.4 km/h
Racha vent: 0 km/h - -
Vent:- - ESE
Pressio: 0 hPa 34212.1 hPa -
Pluja: 0 mm    
Historical Graphs
 
 
Tabular Data for Maig 25, 2017
Time Temperature Dew Point Pressure Wind Wind Speed Wind Gust Humidity Rainfall Rate (Hourly) solar Conditions
-17.8 °C -17.8 °C 0 hPa Calm     Humidity % 0 mm SolarRadiationWatts/m^2 W/m2 Conditions
00:02 -6.3 °C -12.8 °C 34418.7 hPa ENE 9 km/h 9 km/h 47 % 0 mm 0.0 W/m2 CLR
00:07 -6.3 °C -12.9 °C 34418.7 hPa Calm     46 % 0 mm 0.0 W/m2 CLR
00:12 -6.2 °C -13.1 °C 34418.7 hPa Calm     45 % 0 mm 0.0 W/m2 CLR
00:13 -6.2 °C -13.1 °C 34418.7 hPa Calm     45 % 0 mm 0.0 W/m2 CLR
00:18 -6.2 °C -12.9 °C 34418.7 hPa Calm     46 % 0 mm 0.0 W/m2 CLR
00:23 -6.2 °C -13.1 °C 34418.7 hPa Calm     45 % 0 mm 0.0 W/m2 CLR
00:28 -6.3 °C -13.3 °C 34418.7 hPa Calm     44 % 0 mm 0.0 W/m2 CLR
00:33 -6.3 °C -13.4 °C 34428.8 hPa Calm     44 % 0 mm 0.0 W/m2 CLR
00:38 -6.3 °C -13.2 °C 34428.8 hPa Calm     45 % 0 mm 0.0 W/m2 CLR
00:43 -6.4 °C -13.2 °C 34428.8 hPa Calm     45 % 0 mm 0.0 W/m2 CLR
00:48 -6.4 °C -13.3 °C 34428.8 hPa Calm     45 % 0 mm 0.0 W/m2 CLR
00:54 -6.6 °C -13.2 °C 34428.8 hPa Calm     46 % 0 mm 0.0 W/m2 CLR
01:04 -6.9 °C -13.3 °C 34428.8 hPa Calm     47 % 0 mm 0.0 W/m2 CLR
01:09 -7 °C -13.2 °C 34418.7 hPa Calm     48 % 0 mm 0.0 W/m2 CLR
01:14 -7.1 °C -13.4 °C 34418.7 hPa Calm     48 % 0 mm 0.0 W/m2 CLR
01:19 -7.3 °C -13.2 °C 34428.8 hPa Calm     50 % 0 mm 0.0 W/m2 CLR
01:24 -7.4 °C -13.2 °C 34418.7 hPa Calm     51 % 0 mm 0.0 W/m2 CLR
01:29 -7.6 °C -13.3 °C 34428.8 hPa Calm     51 % 0 mm 0.0 W/m2 CLR
01:34 -7.7 °C -13.2 °C 34418.7 hPa Calm     52 % 0 mm 0.0 W/m2 CLR
01:39 -7.8 °C -13.4 °C 34418.7 hPa Calm     52 % 0 mm 0.0 W/m2 CLR
01:44 -7.9 °C -13.4 °C 34418.7 hPa Calm     53 % 0 mm 0.0 W/m2 CLR
01:49 -8.1 °C -13.3 °C 34418.7 hPa Calm     54 % 0 mm 0.0 W/m2 CLR
01:54 -8.2 °C -13.4 °C 34418.7 hPa Calm     54 % 0 mm 0.0 W/m2 CLR
01:59 -8.3 °C -13.4 °C 34418.7 hPa Calm     55 % 0 mm 0.0 W/m2 CLR
02:04 -8.4 °C -13.4 °C 34418.7 hPa Calm     56 % 0 mm 0.0 W/m2 CLR
02:09 -8.7 °C -13.4 °C 34418.7 hPa Calm     57 % 0 mm 0.0 W/m2 CLR
02:14 -8.8 °C -13.6 °C 34418.7 hPa Calm     57 % 0 mm 0.0 W/m2 CLR
02:19 -8.9 °C -13.5 °C 34418.7 hPa Calm     58 % 0 mm 0.0 W/m2 CLR
02:24 -9 °C -13.6 °C 34418.7 hPa Calm     58 % 0 mm 0.0 W/m2 CLR
02:29 -9.1 °C -13.5 °C 34418.7 hPa Calm     59 % 0 mm 0.0 W/m2 CLR
02:34 -9.1 °C -13.6 °C 34418.7 hPa Calm     59 % 0 mm 0.0 W/m2 CLR
02:39 -9.2 °C -13.6 °C 34418.7 hPa Calm     59 % 0 mm 0.0 W/m2 CLR
02:44 -9.3 °C -13.6 °C 34418.7 hPa Calm     60 % 0 mm 0.0 W/m2 CLR
02:49 -9.4 °C -13.7 °C 34418.7 hPa Calm     60 % 0 mm 0.0 W/m2 CLR
02:54 -9.4 °C -13.7 °C 34405.1 hPa Calm     60 % 0 mm 0.0 W/m2 CLR
02:59 -9.4 °C -13.6 °C 34405.1 hPa Calm     61 % 0 mm 0.0 W/m2 CLR
03:04 -9.5 °C -13.6 °C 34405.1 hPa Calm     61 % 0 mm 0.0 W/m2 CLR
03:09 -9.6 °C -13.7 °C 34405.1 hPa Calm     61 % 0 mm 0.0 W/m2 CLR
03:14 -9.6 °C -13.7 °C 34405.1 hPa Calm     61 % 0 mm 0.0 W/m2 CLR
03:19 -9.6 °C -13.7 °C 34405.1 hPa Calm     61 % 0 mm 0.0 W/m2 CLR
03:24 -9.7 °C -13.8 °C 34405.1 hPa Calm     61 % 0 mm 0.0 W/m2 CLR
03:29 -9.8 °C -13.8 °C 34405.1 hPa Calm     62 % 0 mm 0.0 W/m2 CLR
03:34 -9.8 °C -13.8 °C 34405.1 hPa Calm     62 % 0 mm 0.0 W/m2 CLR
03:39 -9.9 °C -13.8 °C 34395 hPa Calm     62 % 0 mm 0.0 W/m2 CLR
03:44 -9.9 °C -13.8 °C 34405.1 hPa Calm     62 % 0 mm 0.0 W/m2 CLR
03:49 -9.9 °C -13.9 °C 34395 hPa Calm     62 % 0 mm 0.0 W/m2 CLR
03:54 -9.9 °C -13.9 °C 34395 hPa Calm     62 % 0 mm 0.0 W/m2 CLR
03:59 -9.9 °C -13.9 °C 34395 hPa Calm     62 % 0 mm 0.0 W/m2 CLR
04:04 -9.9 °C -13.9 °C 34395 hPa Calm     62 % 0 mm 0.0 W/m2 CLR
04:09 -10.1 °C -14 °C 34395 hPa Calm     62 % 0 mm 0.0 W/m2 CLR
04:14 -10.1 °C -14.1 °C 34395 hPa Calm     62 % 0 mm 0.0 W/m2 CLR
04:19 -10.2 °C -14 °C 34395 hPa Calm     63 % 0 mm 0.0 W/m2 CLR
04:24 -10.2 °C -14.1 °C 34395 hPa Calm     63 % 0 mm 0.0 W/m2 CLR
04:29 -10.3 °C -14.1 °C 34395 hPa Calm     63 % 0 mm 0.0 W/m2 CLR
04:34 -10.3 °C -14 °C 34395 hPa Calm     64 % 0 mm 0.0 W/m2 CLR
04:39 -10.3 °C -14.1 °C 34395 hPa Calm     64 % 0 mm 0.0 W/m2 CLR
04:44 -10.3 °C -14.1 °C 34395 hPa Calm     64 % 0 mm 0.0 W/m2 CLR
04:49 -10.3 °C -14.1 °C 34395 hPa Calm     64 % 0 mm 0.0 W/m2 CLR
04:54 -10.4 °C -14.1 °C 34395 hPa Calm     64 % 0 mm 0.0 W/m2 CLR
04:59 -10.4 °C -14.1 °C 34395 hPa Calm     64 % 0 mm 0.0 W/m2 CLR
05:04 -10.4 °C -14.1 °C 34395 hPa Calm     64 % 0 mm 0.0 W/m2 CLR
05:09 -10.5 °C -14.2 °C 34395 hPa Calm     64 % 0 mm 0.0 W/m2 CLR
05:14 -10.5 °C -14.2 °C 34395 hPa Calm     64 % 0 mm 0.0 W/m2 CLR
05:19 -10.5 °C -14.2 °C 34395 hPa Calm     64 % 0 mm 0.0 W/m2 CLR
05:24 -10.5 °C -14.2 °C 34395 hPa Calm     64 % 0 mm 0.0 W/m2 CLR
05:29 -10.6 °C -14.2 °C 34395 hPa Calm     65 % 0 mm 0.0 W/m2 CLR
05:34 -10.7 °C -14.3 °C 34395 hPa Calm     65 % 0 mm 0.0 W/m2 CLR
05:39 -10.7 °C -14.2 °C 34395 hPa Calm     66 % 0 mm 0.0 W/m2 CLR
05:44 -10.8 °C -14.2 °C 34395 hPa Calm     66 % 0 mm 0.0 W/m2 CLR
05:49 -10.7 °C -14.3 °C 34395 hPa Calm     65 % 0 mm 0.0 W/m2 CLR
05:54 -10.7 °C -14.4 °C 34395 hPa Calm     64 % 0 mm 0.0 W/m2 CLR
05:59 -10.7 °C -14.3 °C 34395 hPa Calm     64 % 0 mm 0.0 W/m2 CLR
06:04 -10.7 °C -14.3 °C 34395 hPa Calm     64 % 0 mm 0.0 W/m2 CLR
06:09 -10.6 °C -14.3 °C 34395 hPa Calm     64 % 0 mm 0.0 W/m2 CLR
06:14 -10.6 °C -14.4 °C 34395 hPa Calm     63 % 0 mm 0.0 W/m2 CLR
06:19 -10.6 °C -14.3 °C 34395 hPa Calm     64 % 0 mm 0.0 W/m2 CLR
06:24 -10.7 °C -14.4 °C 34395 hPa Calm     64 % 0 mm 0.0 W/m2 OVC
06:29 -10.7 °C -14.4 °C 34395 hPa Calm     64 % 0 mm 0.0 W/m2 OVC
06:34 -10.8 °C -14.4 °C 34395 hPa Calm     64 % 0 mm 5.0 W/m2 OVC
06:39 -10.8 °C -14.3 °C 34395 hPa Calm     65 % 0 mm 7.0 W/m2 BKN
06:44 -10.9 °C -14.3 °C 34395 hPa Calm     66 % 0 mm 9.0 W/m2 BKN
06:49 -10.9 °C -14.3 °C 34395 hPa Calm     66 % 0 mm 11.0 W/m2 BKN
06:54 -10.9 °C -14.3 °C 34395 hPa Calm     66 % 0 mm 14.0 W/m2 BKN
06:59 -10.9 °C -14.4 °C 34395 hPa Calm     65 % 0 mm 16.0 W/m2 BKN
07:04 -10.8 °C -14.4 °C 34395 hPa Calm     65 % 0 mm 19.0 W/m2 BKN
07:09 -10.8 °C -14.3 °C 34395 hPa Calm     65 % 0 mm 26.0 W/m2 BKN
07:14 -10.7 °C -14.4 °C 34395 hPa Calm     64 % 0 mm 33.0 W/m2 BKN
07:19 -10.7 °C -14.4 °C 34395 hPa Calm     64 % 0 mm 47.0 W/m2 SCT
07:24 -10.6 °C -14.3 °C 34405.1 hPa Calm     64 % 0 mm 58.0 W/m2 SCT
07:29 -10.4 °C -14.2 °C 34405.1 hPa Calm     63 % 0 mm 70.0 W/m2 FEW
07:34 -10.2 °C -14.2 °C 34405.1 hPa Calm     62 % 0 mm 84.0 W/m2 FEW
07:39 -10.1 °C -14.1 °C 34395 hPa Calm     61 % 0 mm 97.0 W/m2 FEW
07:45 -9.8 °C -13.9 °C 34405.1 hPa Calm     61 % 0 mm 114.0 W/m2 CLR
07:50 -9.7 °C -14.1 °C 34395 hPa Calm     59 % 0 mm 130.0 W/m2 CLR
07:55 -9.4 °C -13.8 °C 34395 hPa Calm     59 % 0 mm 146.0 W/m2 CLR
08:00 -9.3 °C -13.8 °C 34395 hPa Calm     58 % 0 mm 163.0 W/m2 CLR
08:05 -9.1 °C -13.8 °C 34395 hPa Calm     57 % 0 mm 185.0 W/m2 CLR
08:10 -8.9 °C -13.8 °C 34395 hPa Calm     56 % 0 mm 202.0 W/m2 CLR
08:15 -8.7 °C -13.7 °C 34395 hPa Calm     55 % 0 mm 218.0 W/m2 CLR
08:20 -8.4 °C -13.5 °C 34395 hPa Calm     55 % 0 mm 234.0 W/m2 CLR
08:25 -8.2 °C -13.4 °C 34395 hPa Calm     54 % 0 mm 253.0 W/m2 CLR
08:30 -7.9 °C -13.4 °C 34395 hPa Calm     52 % 0 mm 269.0 W/m2 CLR
08:35 -7.7 °C -13.6 °C 34395 hPa Calm     50 % 0 mm 285.0 W/m2 CLR
08:40 -7.3 °C -13.6 °C 34395 hPa Calm     48 % 0 mm 299.0 W/m2 CLR
08:45 -7 °C -13.4 °C 34395 hPa Calm     47 % 0 mm 318.0 W/m2 CLR
08:50 -6.8 °C -13.2 °C 34384.8 hPa Calm     47 % 0 mm 334.0 W/m2 CLR
08:55 -6.6 °C -13.1 °C 34395 hPa Calm     47 % 0 mm 352.0 W/m2 CLR
09:00 -6.6 °C -13.4 °C 34384.8 hPa Calm     45 % 0 mm 366.0 W/m2 CLR
09:05 -6.4 °C -13.3 °C 34395 hPa Calm     45 % 0 mm 383.0 W/m2 CLR
09:10 -6.2 °C -13.2 °C 34384.8 hPa Calm     44 % 0 mm 399.0 W/m2 CLR
09:15 -5.8 °C -13.3 °C 34384.8 hPa Calm     42 % 0 mm 417.0 W/m2 CLR
09:20 -5.7 °C -13.4 °C 34384.8 hPa Calm     41 % 0 mm 432.0 W/m2 CLR
09:25 -5.5 °C -13.2 °C 34384.8 hPa Calm     41 % 0 mm 445.0 W/m2 CLR
09:30 -5.2 °C -13.4 °C 34384.8 hPa Calm     39 % 0 mm 461.0 W/m2 CLR
09:35 -4.8 °C -13 °C 34384.8 hPa Calm     39 % 0 mm 478.0 W/m2 CLR
09:40 -4.5 °C -13.2 °C 34384.8 hPa Calm     37 % 0 mm 494.0 W/m2 CLR
09:45 -4.3 °C -13.5 °C 34384.8 hPa Calm     35 % 0 mm 510.0 W/m2 CLR
09:50 -4.3 °C -13.4 °C 34384.8 hPa Calm     35 % 0 mm 529.0 W/m2 CLR
09:55 -4.1 °C -12.9 °C 34384.8 hPa Calm     36 % 0 mm 540.0 W/m2 CLR
10:00 -3.8 °C -13.1 °C 34384.8 hPa Calm     35 % 0 mm 557.0 W/m2 CLR
10:05 -3.7 °C -13.2 °C 34384.8 hPa Calm     34 % 0 mm 571.0 W/m2 CLR
10:10 -3.6 °C -12.8 °C 34384.8 hPa Calm     35 % 0 mm 587.0 W/m2 CLR
10:15 -3.4 °C -12.9 °C 34371.3 hPa ENE 10.3 km/h 10.3 km/h 34 % 0 mm 601.0 W/m2 CLR
10:20 -3.2 °C -13 °C 34371.3 hPa Calm     33 % 0 mm 617.0 W/m2 CLR
10:25 -3 °C -13.3 °C 34371.3 hPa Calm     31 % 0 mm 629.0 W/m2 CLR
10:30 -2.8 °C -13.1 °C 34371.3 hPa Calm     31 % 0 mm 642.0 W/m2 CLR
10:35 -2.6 °C -13.5 °C 34371.3 hPa Calm     29 % 0 mm 659.0 W/m2 CLR
10:40 -2.4 °C -13.4 °C 34371.3 hPa Calm     29 % 0 mm 671.0 W/m2 CLR
10:45 -2.3 °C -13.8 °C 34371.3 hPa Calm     27 % 0 mm 686.0 W/m2 CLR
10:50 -2.3 °C -13.8 °C 34361.1 hPa Calm     27 % 0 mm 698.0 W/m2 CLR
10:55 -2.2 °C -13.4 °C 34361.1 hPa ENE 3.1 km/h   28 % 0 mm 712.0 W/m2 CLR
11:00 -1.9 °C -13.5 °C 34361.1 hPa Calm     27 % 0 mm 722.0 W/m2 CLR
11:05 -1.8 °C -13.7 °C 34361.1 hPa Calm     26 % 0 mm 737.0 W/m2 CLR
11:10 -1.7 °C -13.3 °C 34361.1 hPa ENE 9 km/h 9 km/h 27 % 0 mm 747.0 W/m2 CLR
11:15 -1.6 °C -13.2 °C 34347.6 hPa ESE 6 km/h 6 km/h 27 % 0 mm 759.0 W/m2 CLR
11:18 -1.6 °C -13.2 °C 34347.6 hPa Calm     27 % 0 mm 765.0 W/m2 CLR
11:23 -1.5 °C -13.1 °C 34347.6 hPa ENE 11.9 km/h 11.9 km/h 27 % 0 mm 775.0 W/m2 CLR
11:28 -1.4 °C -13.1 °C 34347.6 hPa North 9 km/h   27 % 0 mm 788.0 W/m2 CLR
11:33 -1.4 °C -12.8 °C 34347.6 hPa ENE 10.3 km/h 10.3 km/h 28 % 0 mm 800.0 W/m2 CLR
11:38 -1.3 °C -12.7 °C 34347.6 hPa NE 17.9 km/h 17.9 km/h 28 % 0 mm 807.0 W/m2 CLR
11:43 -1.4 °C -12.8 °C 34337.4 hPa NNE 17.9 km/h 17.9 km/h 28 % 0 mm 816.0 W/m2 CLR
11:48 -1.4 °C -12.4 °C 34337.4 hPa ENE 23.8 km/h 23.8 km/h 29 % 0 mm 826.0 W/m2 CLR
11:53 -1.4 °C -12.2 °C 34337.4 hPa NNE 20.9 km/h 20.9 km/h 30 % 0 mm 837.0 W/m2 CLR
11:58 -1.3 °C -12.4 °C 34337.4 hPa ENE 20.9 km/h 20.9 km/h 29 % 0 mm 846.0 W/m2 CLR
12:03 -1.4 °C -12.4 °C 34337.4 hPa ENE 18.2 km/h 18.2 km/h 29 % 0 mm 849.0 W/m2 CLR
12:08 -1.3 °C -12.4 °C 34337.4 hPa NE 23.8 km/h 23.8 km/h 29 % 0 mm 860.0 W/m2 CLR
12:13 -1.2 °C -12.3 °C 34337.4 hPa NE 5.1 km/h 5.5 km/h 29 % 0 mm 868.0 W/m2 CLR
12:18 -1 °C -12.4 °C 34337.4 hPa ENE 15 km/h 15 km/h 28 % 0 mm 874.0 W/m2 CLR
12:23 -0.9 °C -12.6 °C 34337.4 hPa Calm     27 % 0 mm 882.0 W/m2 CLR
12:28 -0.7 °C -12.8 °C 34337.4 hPa NE 15 km/h 15 km/h 26 % 0 mm 891.0 W/m2 CLR
12:33 -0.7 °C -13.4 °C 34327.3 hPa Calm     24 % 0 mm 900.0 W/m2 CLR
12:38 -0.8 °C -12.9 °C 34327.3 hPa NE 17.9 km/h 17.9 km/h 26 % 0 mm 907.0 W/m2 CLR
12:43 -0.8 °C -12.5 °C 34327.3 hPa ENE 17.9 km/h 17.9 km/h 27 % 0 mm 911.0 W/m2 CLR
12:48 -0.6 °C -12.7 °C 34327.3 hPa North 15.6 km/h 15.6 km/h 26 % 0 mm 919.0 W/m2 CLR
12:53 -0.7 °C -12.8 °C 34327.3 hPa NNE 10.3 km/h 10.3 km/h 26 % 0 mm 921.0 W/m2 CLR
12:58 -0.6 °C -12.7 °C 34327.3 hPa NNE 15 km/h 15 km/h 26 % 0 mm 925.0 W/m2 CLR
13:03 -0.4 °C -13.2 °C 34313.7 hPa ENE 17.9 km/h 17.9 km/h 24 % 0 mm 928.0 W/m2 CLR
13:08 -0.4 °C -13.2 °C 34313.7 hPa NNE 15.6 km/h 15.6 km/h 24 % 0 mm 935.0 W/m2 CLR
13:13 -0.3 °C -13.4 °C 34313.7 hPa North 6 km/h   23 % 0 mm 940.0 W/m2 CLR
13:18 -0.1 °C -13.3 °C 34313.7 hPa East 12.9 km/h 12.9 km/h 23 % 0 mm 942.0 W/m2 CLR
13:23 -0.2 °C -13.3 °C 34303.6 hPa East 15.6 km/h 15.6 km/h 23 % 0 mm 944.0 W/m2 CLR
13:28 -0.2 °C -13.4 °C 34303.6 hPa NE 17.9 km/h 17.9 km/h 23 % 0 mm 946.0 W/m2 CLR
13:33 -0.1 °C -13.3 °C 34303.6 hPa ENE 23.8 km/h 23.8 km/h 23 % 0 mm 944.0 W/m2 CLR
13:38 0 °C -13.6 °C 34303.6 hPa Calm   1.6 km/h 22 % 0 mm 946.0 W/m2 CLR
13:44 0.1 °C -13.4 °C 34303.6 hPa Calm     22 % 0 mm 949.0 W/m2 CLR
13:49 0.2 °C -13.4 °C 34303.6 hPa ENE 17.9 km/h 17.9 km/h 22 % 0 mm 953.0 W/m2 CLR
13:54 0.2 °C -13.7 °C 34303.6 hPa NE 17.9 km/h 17.9 km/h 21 % 0 mm 951.0 W/m2 CLR
13:59 0.3 °C -13.7 °C 34293.4 hPa ENE 29.8 km/h 29.8 km/h 21 % 0 mm 949.0 W/m2 CLR
14:04 0.3 °C -13.7 °C 34293.4 hPa NE 17.9 km/h 17.9 km/h 21 % 0 mm 947.0 W/m2 CLR
14:09 0.3 °C -13.7 °C 34293.4 hPa NNW 15 km/h 15 km/h 21 % 0 mm 946.0 W/m2 CLR
14:14 0.3 °C -13.7 °C 34293.4 hPa NNW 11.9 km/h 11.9 km/h 21 % 0 mm 942.0 W/m2 CLR
14:19 0.2 °C -13.8 °C 34293.4 hPa West 17.9 km/h 17.9 km/h 21 % 0 mm 942.0 W/m2 CLR
14:24 0.4 °C -13.6 °C 34279.9 hPa NE 20.9 km/h 20.9 km/h 21 % 0 mm 940.0 W/m2 CLR
14:29 0.6 °C -13.8 °C 34279.9 hPa ENE 26.9 km/h 26.9 km/h 20 % 0 mm 940.0 W/m2 CLR
14:34 0.4 °C -14 °C 34279.9 hPa Calm   0.5 km/h 20 % 0 mm 935.0 W/m2 CLR
14:39 0.6 °C -13.8 °C 34279.9 hPa East 17.9 km/h 17.9 km/h 20 % 0 mm 935.0 W/m2 CLR
14:44 0.5 °C -13.9 °C 34279.9 hPa ENE 29.8 km/h 29.8 km/h 20 % 0 mm 930.0 W/m2 CLR
14:49 0.4 °C -14.4 °C 34279.9 hPa Calm     19 % 0 mm 930.0 W/m2 CLR
14:54 0.4 °C -14.4 °C 34269.7 hPa Calm     19 % 0 mm 925.0 W/m2 CLR
14:59 0.4 °C -14.3 °C 34269.7 hPa South 9 km/h 9 km/h 19 % 0 mm 919.0 W/m2 CLR
15:04 0.4 °C -14.3 °C 34269.7 hPa Calm     19 % 0 mm 916.0 W/m2 CLR
15:09 0.6 °C -13.8 °C 34269.7 hPa WNW 9 km/h 9 km/h 20 % 0 mm 911.0 W/m2 CLR
15:14 0.8 °C -14.1 °C 34256.2 hPa NNE 9 km/h 9 km/h 19 % 0 mm 904.0 W/m2 CLR
15:19 0.9 °C -14.4 °C 34269.7 hPa ESE 11.9 km/h 11.9 km/h 18 % 0 mm 896.0 W/m2 CLR
15:24 0.8 °C -14.6 °C 34256.2 hPa ENE 26.9 km/h 26.9 km/h 18 % 0 mm 891.0 W/m2 CLR
15:29 0.7 °C -14.1 °C 34256.2 hPa ESE 9 km/h 9 km/h 19 % 0 mm 884.0 W/m2 CLR
15:34 0.8 °C -14.5 °C 34256.2 hPa East 20.9 km/h 20.9 km/h 18 % 0 mm 875.0 W/m2 CLR
15:39 0.8 °C -14.1 °C 34256.2 hPa East 6 km/h 6 km/h 19 % 0 mm 872.0 W/m2 CLR
15:44 1 °C -14.3 °C 34256.2 hPa North 15 km/h 15 km/h 18 % 0 mm 858.0 W/m2 CLR
15:49 1 °C -14.3 °C 34256.2 hPa ENE 17.9 km/h 17.9 km/h 18 % 0 mm 851.0 W/m2 CLR
15:54 1 °C -14.3 °C 34246 hPa ENE 15 km/h 15 km/h 18 % 0 mm 837.0 W/m2 CLR
16:04 0.9 °C -14 °C 34246 hPa ENE 9 km/h 9 km/h 19 % 0 mm 819.0 W/m2 CLR
16:09 0.8 °C -13.7 °C 34246 hPa ENE 20.9 km/h 20.9 km/h 20 % 0 mm 810.0 W/m2 CLR
16:14 0.7 °C -13.8 °C 34235.8 hPa SSE 20.9 km/h 20.9 km/h 20 % 0 mm 798.0 W/m2 CLR
16:19 0.6 °C -13.4 °C 34235.8 hPa East 29.8 km/h 29.8 km/h 21 % 0 mm 784.0 W/m2 CLR
16:24 0.6 °C -13.8 °C 34235.8 hPa ENE 15 km/h 15 km/h 20 % 0 mm 775.0 W/m2 CLR
16:29 0.7 °C -13.7 °C 34235.8 hPa East 31.1 km/h 31.1 km/h 20 % 0 mm 768.0 W/m2 CLR
16:34 0.6 °C -13.4 °C 34246 hPa East 20.9 km/h 20.9 km/h 21 % 0 mm 758.0 W/m2 CLR
16:39 0.7 °C -13.4 °C 34235.8 hPa South 23.8 km/h 23.8 km/h 21 % 0 mm 744.0 W/m2 CLR
16:44 0.5 °C -13.1 °C 34235.8 hPa East 29.8 km/h 29.8 km/h 22 % 0 mm 731.0 W/m2 CLR
16:49 0.4 °C -12.8 °C 34235.8 hPa ESE 32.8 km/h 32.8 km/h 23 % 0 mm 721.0 W/m2 CLR
16:54 0.3 °C -12.9 °C 34235.8 hPa East 20.9 km/h 20.9 km/h 23 % 0 mm 707.0 W/m2 CLR
16:59 0.4 °C -13.2 °C 34235.8 hPa ESE 18.2 km/h 18.2 km/h 22 % 0 mm 691.0 W/m2 CLR
17:04 0.4 °C -12.9 °C 34235.8 hPa SE 26.9 km/h 26.9 km/h 23 % 0 mm 680.0 W/m2 CLR
17:09 0.3 °C -12.9 °C 34235.8 hPa ESE 17.9 km/h 17.9 km/h 23 % 0 mm 670.0 W/m2 CLR
17:14 0.4 °C -13.2 °C 34235.8 hPa ESE 29.8 km/h 29.8 km/h 22 % 0 mm 659.0 W/m2 CLR
17:16 0.4 °C -13.2 °C 34235.8 hPa SE 17.9 km/h 17.9 km/h 22 % 0 mm 652.0 W/m2 CLR
17:21 0.3 °C -13.3 °C 34235.8 hPa SE 18.2 km/h 18.2 km/h 22 % 0 mm 636.0 W/m2 CLR
17:27 0.2 °C -13 °C 34235.8 hPa SE 9 km/h   23 % 0 mm 628.0 W/m2 CLR
17:31 0.3 °C -12.9 °C 34235.8 hPa SE 23.3 km/h 23.3 km/h 23 % 0 mm 612.0 W/m2 CLR
17:36 0.3 °C -13.3 °C 34235.8 hPa ESE 29.8 km/h 29.8 km/h 22 % 0 mm 594.0 W/m2 CLR
17:42 0.4 °C -13.2 °C 34235.8 hPa SE 23.8 km/h 23.8 km/h 22 % 0 mm 582.0 W/m2 CLR
17:47 0.3 °C -13.3 °C 34235.8 hPa East 17.9 km/h 17.9 km/h 22 % 0 mm 570.0 W/m2 CLR
17:52 0.3 °C -13.3 °C 34222.3 hPa SE 17.9 km/h 17.9 km/h 22 % 0 mm 554.0 W/m2 CLR
17:57 0.2 °C -13.3 °C 34222.3 hPa SSE 23.8 km/h 23.8 km/h 22 % 0 mm 541.0 W/m2 CLR
18:02 0.3 °C -13.3 °C 34235.8 hPa ESE 15 km/h 15 km/h 22 % 0 mm 524.0 W/m2 CLR
18:07 0.3 °C -13.3 °C 34222.3 hPa ESE 23.8 km/h 23.8 km/h 22 % 0 mm 510.0 W/m2 CLR
18:10 0.3 °C -13.3 °C 34222.3 hPa SE 28.5 km/h 28.5 km/h 22 % 0 mm 501.0 W/m2 CLR
18:15 0.1 °C -13.5 °C 34222.3 hPa ESE 26.9 km/h 26.9 km/h 22 % 0 mm 487.0 W/m2 CLR
18:16 0.1 °C -13.5 °C 34222.3 hPa East 26.9 km/h 26.9 km/h 22 % 0 mm 487.0 W/m2 CLR
18:21 0 °C -13.2 °C 34222.3 hPa SSE 25.9 km/h 25.9 km/h 23 % 0 mm 473.0 W/m2 CLR
18:26 -0.1 °C -13.6 °C 34222.3 hPa ESE 29.8 km/h 29.8 km/h 22 % 0 mm 455.0 W/m2 CLR
18:31 -0.1 °C -13.6 °C 34222.3 hPa East 20.8 km/h 20.8 km/h 22 % 0 mm 439.0 W/m2 CLR
18:36 -0.1 °C -13.6 °C 34222.3 hPa SE 35.7 km/h 35.7 km/h 22 % 0 mm 427.0 W/m2 CLR
18:41 -0.1 °C -13.6 °C 34222.3 hPa ESE 23.8 km/h 23.8 km/h 22 % 0 mm 413.0 W/m2 CLR
18:46 -0.1 °C -13.7 °C 34222.3 hPa ESE 29.8 km/h 29.8 km/h 22 % 0 mm 397.0 W/m2 CLR
18:51 -0.2 °C -13.7 °C 34222.3 hPa ESE 38.8 km/h 38.8 km/h 22 % 0 mm 378.0 W/m2 CLR
18:56 -0.3 °C -13.8 °C 34212.1 hPa ESE 29.8 km/h 29.8 km/h 22 % 0 mm 364.0 W/m2 CLR
19:01 -0.3 °C -13.8 °C 34212.1 hPa ESE 29.8 km/h 29.8 km/h 22 % 0 mm 348.0 W/m2 CLR
19:02 -0.3 °C -13.8 °C 34212.1 hPa SE 29.8 km/h 29.8 km/h 22 % 0 mm 345.0 W/m2 CLR
19:07 -0.3 °C -13.8 °C 34212.1 hPa SE 23.8 km/h 23.8 km/h 22 % 0 mm 329.0 W/m2 CLR
19:12 -0.3 °C -13.8 °C 34212.1 hPa ESE 29.8 km/h 29.8 km/h 22 % 0 mm 311.0 W/m2 CLR
19:17 -0.4 °C -13.9 °C 34212.1 hPa SE 28.5 km/h 28.5 km/h 22 % 0 mm 299.0 W/m2 CLR
19:22 -0.6 °C -14 °C 34212.1 hPa ESE 29.8 km/h 29.8 km/h 22 % 0 mm 281.0 W/m2 CLR
19:27 -0.6 °C -13.7 °C 34212.1 hPa ESE 17.9 km/h 17.9 km/h 23 % 0 mm 264.0 W/m2 CLR
19:32 -0.6 °C -14.1 °C 34212.1 hPa SSE 31.1 km/h 31.1 km/h 22 % 0 mm 246.0 W/m2 CLR
19:37 -0.7 °C -13.8 °C 34212.1 hPa ESE 23.8 km/h 23.8 km/h 23 % 0 mm 230.0 W/m2 CLR
19:42 -0.8 °C -14.2 °C 34212.1 hPa SSE 29.8 km/h 29.8 km/h 22 % 0 mm 214.0 W/m2 CLR
19:47 -0.8 °C -14.2 °C 34212.1 hPa SE 23.3 km/h 23.3 km/h 22 % 0 mm 199.0 W/m2 CLR
19:52 -0.9 °C -14.7 °C 34222.3 hPa SE 23.8 km/h 23.8 km/h 21 % 0 mm 178.0 W/m2 CLR
19:53 -0.9 °C -14.7 °C 34222.3 hPa SE 25.9 km/h 25.9 km/h 21 % 0 mm 178.0 W/m2 CLR
19:58 -0.9 °C -14.7 °C 34222.3 hPa SSE 29.8 km/h 29.8 km/h 21 % 0 mm 158.0 W/m2 CLR
20:03 -1 °C -14.3 °C 34222.3 hPa SE 29.8 km/h 29.8 km/h 22 % 0 mm 141.0 W/m2 CLR
20:08 -1.1 °C -14.4 °C 34212.1 hPa SE 23.3 km/h 23.3 km/h 22 % 0 mm 125.0 W/m2 CLR
20:13 -1.2 °C -14.5 °C 34222.3 hPa SE 15.6 km/h 15.6 km/h 22 % 0 mm 109.0 W/m2 CLR
20:18 -1.2 °C -14.6 °C 34222.3 hPa SE 17.9 km/h 17.9 km/h 22 % 0 mm 93.0 W/m2 CLR
20:23 -1.3 °C -14.6 °C 34222.3 hPa SE 17.9 km/h 17.9 km/h 22 % 0 mm 79.0 W/m2 FEW
20:28 -1.3 °C -14.3 °C 34222.3 hPa SE 17.9 km/h 17.9 km/h 23 % 0 mm 67.0 W/m2 FEW
20:33 -1.4 °C -14.3 °C 34222.3 hPa SSE 23.8 km/h 23.8 km/h 23 % 0 mm 56.0 W/m2 SCT
20:38 -1.4 °C -14.4 °C 34222.3 hPa SSE 15.6 km/h 17.1 km/h 23 % 0 mm 39.0 W/m2 BKN
20:43 -1.6 °C -14.5 °C 34222.3 hPa SSE 23.8 km/h 23.8 km/h 23 % 0 mm 33.0 W/m2 BKN
20:48 -1.6 °C -14.9 °C 34222.3 hPa SSE 15 km/h 15 km/h 22 % 0 mm 26.0 W/m2 BKN
20:53 -1.7 °C -14.6 °C 34235.8 hPa SSE 20.9 km/h 20.9 km/h 23 % 0 mm 19.0 W/m2 BKN
20:58 -1.8 °C -14.7 °C 34235.8 hPa SE 11.9 km/h 11.9 km/h 23 % 0 mm 16.0 W/m2 BKN
21:03 -1.9 °C -14.4 °C 34235.8 hPa SE 15 km/h 15 km/h 24 % 0 mm 14.0 W/m2 BKN
21:08 -2 °C -14.2 °C 34235.8 hPa SSE 11.9 km/h 11.9 km/h 25 % 0 mm 11.0 W/m2 BKN
21:13 -2.1 °C -13.9 °C 34235.8 hPa SSE 11.9 km/h 11.9 km/h 26 % 0 mm 7.0 W/m2 BKN
21:18 -2.2 °C -14 °C 34235.8 hPa SSE 11.9 km/h 11.9 km/h 26 % 0 mm 0.0 W/m2 OVC
21:23 -2.3 °C -14.1 °C 34235.8 hPa SSE 9 km/h 9 km/h 26 % 0 mm 0.0 W/m2 OVC
21:28 -2.4 °C -13.9 °C 34235.8 hPa SSE 11.9 km/h 11.9 km/h 27 % 0 mm 0.0 W/m2 OVC
21:33 -2.4 °C -13.7 °C 34246 hPa Calm     28 % 0 mm 0.0 W/m2 CLR
21:38 -2.6 °C -13.8 °C 34246 hPa Calm     28 % 0 mm 0.0 W/m2 CLR
21:43 -2.8 °C -13.4 °C 34246 hPa South 9 km/h 9 km/h 30 % 0 mm 0.0 W/m2 CLR
21:48 -2.9 °C -13.5 °C 34256.2 hPa SSE 9 km/h 9 km/h 30 % 0 mm 0.0 W/m2 CLR
21:53 -2.9 °C -13.5 °C 34256.2 hPa South 9 km/h 9 km/h 30 % 0 mm 0.0 W/m2 CLR
21:58 -3 °C -13.6 °C 34256.2 hPa Calm     30 % 0 mm 0.0 W/m2 CLR
22:03 -3.1 °C -13.7 °C 34256.2 hPa South 12.9 km/h 12.9 km/h 30 % 0 mm 0.0 W/m2 CLR
22:08 -3.1 °C -13.7 °C 34256.2 hPa South 5.1 km/h 5.1 km/h 30 % 0 mm 0.0 W/m2 CLR
22:13 -3.2 °C -13.7 °C 34256.2 hPa South 6 km/h 6 km/h 30 % 0 mm 0.0 W/m2 CLR
22:18 -3.3 °C -13.8 °C 34256.2 hPa Calm     30 % 0 mm 0.0 W/m2 CLR
22:23 -3.4 °C -13.8 °C 34269.7 hPa Calm     30 % 0 mm 0.0 W/m2 CLR
22:28 -3.5 °C -14 °C 34269.7 hPa Calm     30 % 0 mm 0.0 W/m2 CLR
22:33 -3.5 °C -14 °C 34269.7 hPa Calm     30 % 0 mm 0.0 W/m2 CLR
22:38 -3.6 °C -14.3 °C 34269.7 hPa South 9 km/h 9 km/h 29 % 0 mm 0.0 W/m2 CLR
22:43 -3.6 °C -14.1 °C 34269.7 hPa Calm     30 % 0 mm 0.0 W/m2 CLR
22:48 -3.7 °C -14.2 °C 34269.7 hPa Calm     30 % 0 mm 0.0 W/m2 CLR
22:53 -3.8 °C -14.3 °C 34269.7 hPa Calm     30 % 0 mm 0.0 W/m2 CLR
22:59 -3.9 °C -14.1 °C 34269.7 hPa Calm     31 % 0 mm 0.0 W/m2 CLR
23:04 -4.1 °C -14.2 °C 34269.7 hPa Calm     31 % 0 mm 0.0 W/m2 CLR
23:09 -4.1 °C -14.3 °C 34269.7 hPa Calm     31 % 0 mm 0.0 W/m2 CLR
23:14 -4.2 °C -14.1 °C 34269.7 hPa Calm     32 % 0 mm 0.0 W/m2 CLR
23:19 -4.3 °C -14.2 °C 34269.7 hPa Calm     32 % 0 mm 0.0 W/m2 CLR
23:24 -4.4 °C -14.3 °C 34269.7 hPa Calm     32 % 0 mm 0.0 W/m2 CLR
23:29 -4.6 °C -14.4 °C 34279.9 hPa Calm     32 % 0 mm 0.0 W/m2 CLR
23:34 -4.7 °C -14.3 °C 34279.9 hPa Calm     33 % 0 mm 0.0 W/m2 CLR
23:39 -4.9 °C -14.5 °C 34279.9 hPa Calm     33 % 0 mm 0.0 W/m2 CLR
23:44 -5 °C -14.6 °C 34279.9 hPa Calm     33 % 0 mm 0.0 W/m2 CLR
23:49 -5.1 °C -14.6 °C 34279.9 hPa Calm     33 % 0 mm 0.0 W/m2 CLR
23:54 -5.1 °C -14.6 °C 34279.9 hPa Calm     33 % 0 mm 0.0 W/m2 CLR
23:59 -5.2 °C -14.2 °C 34279.9 hPa Calm     35 % 0 mm 0.0 W/m2 CLR
Lo Temps de Massalio
Compliments of Weather Underground - 1.25 mb